| time (UTC) | temp F | wind direction | speed knots | gust knots | rain 1hr in | rain 24hr in | rain mn in | humidity % | barometer mb |
| 20260503013104 | 66 | 299 | 0.9 | 2.6 | 0.00 | 0.01 | 0.00 | 43 | 1010.6 |
| 20260503012604 | 66 | 321 | 0.9 | 2.6 | 0.00 | 0.01 | 0.00 | 43 | 1010.5 |
| 20260503012104 | 66 | 314 | 0.9 | 2.6 | 0.00 | 0.01 | 0.00 | 42 | 1010.5 |
| 20260503011604 | 66 | 296 | 0.0 | 2.6 | 0.00 | 0.01 | 0.00 | 42 | 1010.5 |
| 20260503010104 | 67 | 289 | 0.9 | 4.3 | 0.00 | 0.01 | 0.00 | 42 | 1010.4 |
| 20260503005604 | 67 | 321 | 1.7 | 4.3 | 0.00 | 0.01 | 0.00 | 42 | 1010.5 |
| 20260503004104 | 65 | 315 | 0.9 | 5.2 | 0.00 | 0.01 | 0.00 | 44 | 1010.5 |
| 20260503003604 | 65 | 324 | 1.7 | 8.7 | 0.00 | 0.01 | 0.00 | 44 | 1010.3 |
| 20260503003104 | 64 | 323 | 1.7 | 5.2 | 0.00 | 0.01 | 0.00 | 44 | 1010.4 |
| 20260503002604 | 64 | 327 | 1.7 | 4.3 | 0.00 | 0.01 | 0.00 | 45 | 1010.7 |
| 20260503002105 | 64 | 271 | 0.0 | 2.6 | 0.00 | 0.01 | 0.00 | 47 | 1010.5 |
| 20260503001104 | 64 | 347 | 0.9 | 2.6 | 0.00 | 0.01 | 0.00 | 47 | 1010.4 |
| 20260503000604 | 64 | 252 | 0.0 | 0.0 | 0.00 | 0.01 | 0.00 | 47 | 1010.4 |
| 20260503000105 | 64 | 253 | 0.0 | 1.7 | 0.00 | 0.01 | 0.00 | 46 | 1010.4 |
| 20260502235604 | 64 | 299 | 0.0 | 0.9 | 0.00 | 0.01 | 0.00 | 46 | 1010.4 |
| 20260502235105 | 64 | 299 | 0.0 | 2.6 | 0.00 | 0.01 | 0.00 | 46 | 1010.3 |
| 20260502234604 | 64 | 288 | 0.0 | 0.9 | 0.00 | 0.01 | 0.00 | 46 | 1010.4 |
| 20260502234104 | 64 | 324 | 0.0 | 2.6 | 0.00 | 0.01 | 0.00 | 46 | 1010.4 |
| 20260502233604 | 64 | 200 | 0.9 | 2.6 | 0.00 | 0.01 | 0.00 | 45 | 1010.4 |
| 20260502233104 | 64 | 158 | 0.0 | 0.0 | 0.00 | 0.01 | 0.00 | 40 | 1010.6 |
| 20260502232604 | 63 | 158 | 0.0 | 2.6 | 0.00 | 0.01 | 0.00 | 45 | 1011.1 |
| 20260502231604 | 64 | 208 | 0.9 | 7.0 | 0.00 | 0.01 | 0.00 | 44 | 1011.6 |
| 20260502230604 | 65 | 150 | 0.9 | 7.0 | 0.00 | 0.01 | 0.00 | 41 | 1011.8 |
| 20260502225604 | 68 | 131 | 0.9 | 2.6 | 0.00 | 0.01 | 0.00 | 35 | 1011.5 |
| 20260502224604 | 69 | 334 | 0.0 | 0.0 | 0.00 | 0.01 | 0.00 | 36 | 1010.7 |
| 20260502223604 | 69 | 329 | 0.0 | 2.6 | 0.00 | 0.01 | 0.00 | 36 | 1010.3 |
| 20260502223104 | 70 | 319 | 0.9 | 2.6 | 0.00 | 0.01 | 0.00 | 35 | 1010.1 |
| 20260502222604 | 70 | 311 | 1.7 | 7.8 | 0.00 | 0.01 | 0.00 | 35 | 1009.9 |
| 20260502222104 | 70 | 333 | 2.6 | 5.2 | 0.00 | 0.01 | 0.00 | 35 | 1009.9 |
| 20260502221604 | 70 | 334 | 0.9 | 4.3 | 0.00 | 0.01 | 0.00 | 35 | 1009.9 |
| 20260502221104 | 70 | 321 | 0.9 | 4.3 | 0.00 | 0.01 | 0.00 | 35 | 1010.1 |
| 20260502220604 | 70 | 320 | 0.9 | 7.0 | 0.00 | 0.01 | 0.00 | 35 | 1010.0 |
| 20260502220105 | 70 | 323 | 0.9 | 2.6 | 0.00 | 0.01 | 0.00 | 34 | 1010.1 |
| 20260502215105 | 70 | 321 | 0.9 | 4.3 | 0.00 | 0.01 | 0.00 | 33 | 1010.1 |
| 20260502214604 | 70 | 324 | 0.9 | 4.3 | 0.00 | 0.01 | 0.00 | 34 | 1010.2 |
| 20260502214104 | 70 | 324 | 1.7 | 4.3 | 0.00 | 0.01 | 0.00 | 33 | 1010.2 |
| 20260502213604 | 70 | 330 | 1.7 | 7.0 | 0.00 | 0.01 | 0.00 | 33 | 1010.2 |
| 20260502213104 | 70 | 287 | 0.9 | 2.6 | 0.00 | 0.01 | 0.00 | 34 | 1010.2 |
| 20260502211604 | 70 | 245 | 0.9 | 2.6 | 0.00 | 0.01 | 0.00 | 35 | 1010.4 |
| 20260502211104 | 70 | 317 | 1.7 | 5.2 | 0.00 | 0.01 | 0.00 | 34 | 1010.4 |
| 20260502210604 | 70 | 335 | 0.9 | 2.6 | 0.00 | 0.01 | 0.00 | 35 | 1010.3 |
| 20260502210104 | 69 | 330 | 0.9 | 7.8 | 0.00 | 0.01 | 0.00 | 34 | 1010.4 |
| 20260502204604 | 69 | 315 | 1.7 | 5.2 | 0.00 | 0.01 | 0.00 | 34 | 1010.2 |
| 20260502204104 | 69 | 329 | 2.6 | 5.2 | 0.00 | 0.01 | 0.00 | 33 | 1010.3 |
| 20260502203605 | 69 | 322 | 2.6 | 5.2 | 0.00 | 0.01 | 0.00 | 34 | 1010.4 |
| 20260502203104 | 69 | 326 | 0.0 | 2.6 | 0.00 | 0.01 | 0.00 | 34 | 1010.6 |
| 20260502202104 | 69 | 321 | 0.0 | 2.6 | 0.00 | 0.01 | 0.00 | 34 | 1010.8 |
| 20260502201604 | 69 | 322 | 0.9 | 5.2 | 0.00 | 0.01 | 0.00 | 34 | 1010.8 |
| 20260502201104 | 70 | 340 | 1.7 | 7.0 | 0.00 | 0.01 | 0.00 | 34 | 1010.8 |
| 20260502200604 | 70 | 315 | 1.7 | 4.3 | 0.00 | 0.01 | 0.00 | 34 | 1010.8 |
| 20260502195606 | 70 | 330 | 0.0 | 4.3 | 0.00 | 0.01 | 0.00 | 35 | 1010.9 |
| 20260502195104 | 70 | 323 | 2.6 | 7.0 | 0.00 | 0.01 | 0.00 | 36 | 1010.9 |
| 20260502194604 | 70 | 322 | 0.0 | 6.1 | 0.00 | 0.01 | 0.00 | 38 | 1010.9 |
| 20260502194105 | 70 | 329 | 1.7 | 5.2 | 0.00 | 0.01 | 0.00 | 39 | 1010.9 |
| 20260502193604 | 69 | 325 | 2.6 | 5.2 | 0.00 | 0.01 | 0.00 | 39 | 1010.9 |
| 20260502193104 | 69 | 312 | 0.9 | 5.2 | 0.00 | 0.01 | 0.00 | 38 | 1011.2 |
| 20260502192604 | 69 | 324 | 2.6 | 7.8 | 0.00 | 0.01 | 0.00 | 38 | 1011.2 |
| 20260502192105 | 69 | 320 | 0.9 | 4.3 | 0.00 | 0.01 | 0.00 | 40 | 1011.4 |
| 20260502191604 | 69 | 321 | 0.9 | 5.2 | 0.00 | 0.01 | 0.00 | 40 | 1011.3 |
| 20260502190605 | 69 | 315 | 1.7 | 7.8 | 0.00 | 0.01 | 0.00 | 41 | 1011.5 |
| 20260502190104 | 69 | 322 | 0.9 | 5.2 | 0.00 | 0.01 | 0.00 | 41 | 1011.4 |
| 20260502185105 | 67 | 329 | 0.9 | 4.3 | 0.00 | 0.01 | 0.00 | 42 | 1011.4 |
| 20260502184104 | 67 | 344 | 0.9 | 2.6 | 0.00 | 0.01 | 0.00 | 43 | 1011.6 |
| 20260502183605 | 67 | 326 | 0.9 | 5.2 | 0.00 | 0.01 | 0.00 | 45 | 1011.7 |
| 20260502183104 | 66 | 319 | 1.7 | 2.6 | 0.00 | 0.01 | 0.00 | 45 | 1011.6 |
| 20260502182604 | 66 | 322 | 0.9 | 4.3 | 0.00 | 0.01 | 0.00 | 45 | 1011.7 |
| 20260502182104 | 66 | 322 | 1.7 | 4.3 | 0.00 | 0.01 | 0.00 | 45 | 1011.8 |
| 20260502181604 | 66 | 315 | 1.7 | 4.3 | 0.00 | 0.01 | 0.00 | 46 | 1011.8 |
| 20260502181104 | 65 | 66 | 0.0 | 2.6 | 0.00 | 0.01 | 0.00 | 47 | 1011.8 |
| 20260502180604 | 64 | 320 | 1.7 | 4.3 | 0.00 | 0.01 | 0.00 | 48 | 1011.8 |
| 20260502170105 | 62 | 311 | 1.7 | 5.2 | 0.00 | 0.01 | 0.00 | 53 | 1011.6 |
| 20260502164105 | 61 | 319 | 1.7 | 2.6 | 0.00 | 0.01 | 0.00 | 55 | 1011.5 |
| 20260502163604 | 61 | 310 | 0.0 | 2.6 | 0.00 | 0.01 | 0.00 | 56 | 1011.5 |
| 20260502163105 | 60 | 318 | 0.0 | 0.9 | 0.00 | 0.01 | 0.00 | 57 | 1011.5 |
| 20260502162105 | 60 | 319 | 0.0 | 1.7 | 0.00 | 0.01 | 0.00 | 57 | 1011.4 |
| 20260502161604 | 60 | 319 | 0.9 | 2.6 | 0.00 | 0.01 | 0.00 | 58 | 1011.5 |
| 20260502161104 | 59 | 318 | 0.9 | 2.6 | 0.00 | 0.01 | 0.00 | 60 | 1011.5 |
| 20260502160604 | 59 | 319 | 0.9 | 2.6 | 0.00 | 0.01 | 0.00 | 62 | 1011.5 |
| 20260502160104 | 58 | 313 | 0.9 | 4.3 | 0.00 | 0.01 | 0.00 | 64 | 1011.5 |
| 20260502152103 | 53 | 179 | 0.0 | 0.0 | 0.00 | 0.01 | 0.00 | 79 | 1011.5 |
| 20260502151604 | 52 | 179 | 0.0 | 0.0 | 0.00 | 0.01 | 0.00 | 81 | 1011.5 |
| 20260502151103 | 51 | 179 | 0.0 | 0.0 | 0.00 | 0.01 | 0.00 | 83 | 1011.5 |
| 20260502150602 | 51 | 179 | 0.0 | 0.0 | 0.00 | 0.01 | 0.00 | 84 | 1011.4 |
| 20260502140104 | 47 | 179 | 0.0 | 0.0 | 0.00 | 0.01 | 0.00 | 86 | 1011.3 |
| 20260502130603 | 47 | 179 | 0.0 | 0.0 | 0.00 | 0.01 | 0.00 | 84 | 1011.0 |
| 20260502130103 | 47 | 179 | 0.0 | 0.0 | 0.00 | 0.01 | 0.00 | 84 | 1011.0 |
| 20260502123103 | 48 | 179 | 0.0 | 0.0 | 0.00 | 0.01 | 0.00 | 84 | 1011.1 |
| 20260502122103 | 48 | 179 | 0.0 | 0.0 | 0.00 | 0.01 | 0.00 | 84 | 1011.1 |
| 20260502121104 | 48 | 179 | 0.0 | 0.0 | 0.00 | 0.01 | 0.00 | 84 | 1011.3 |
| 20260502120603 | 48 | 179 | 0.0 | 0.0 | 0.00 | 0.01 | 0.00 | 84 | 1011.3 |
| 20260502115603 | 48 | 179 | 0.0 | 0.0 | 0.00 | 0.01 | 0.00 | 84 | 1011.3 |
| 20260502114603 | 48 | 179 | 0.0 | 0.0 | 0.00 | 0.01 | 0.00 | 84 | 1011.2 |
| 20260502113603 | 49 | 179 | 0.0 | 0.0 | 0.00 | 0.01 | 0.00 | 84 | 1011.3 |
| 20260502113103 | 49 | 179 | 0.0 | 0.0 | 0.00 | 0.01 | 0.00 | 84 | 1011.3 |
| 20260502112603 | 49 | 179 | 0.0 | 0.0 | 0.00 | 0.01 | 0.00 | 84 | 1011.3 |
| 20260502112103 | 49 | 179 | 0.0 | 0.0 | 0.00 | 0.01 | 0.00 | 84 | 1011.4 |
| 20260502111603 | 49 | 179 | 0.0 | 0.0 | 0.00 | 0.01 | 0.00 | 84 | 1011.4 |
| 20260502111103 | 49 | 179 | 0.0 | 0.0 | 0.00 | 0.01 | 0.00 | 84 | 1011.4 |
| 20260502110603 | 49 | 179 | 0.0 | 0.0 | 0.00 | 0.01 | 0.00 | 84 | 1011.4 |
| 20260502110104 | 49 | 179 | 0.0 | 0.0 | 0.00 | 0.01 | 0.00 | 84 | 1011.4 |
| 20260502105603 | 49 | 179 | 0.0 | 0.0 | 0.00 | 0.01 | 0.00 | 84 | 1011.4 |
| 20260502104603 | 49 | 179 | 0.0 | 0.0 | 0.00 | 0.01 | 0.00 | 84 | 1011.5 |
| 20260502103604 | 49 | 179 | 0.0 | 0.0 | 0.00 | 0.01 | 0.00 | 84 | 1011.5 |
| 20260502103103 | 49 | 179 | 0.0 | 0.0 | 0.00 | 0.01 | 0.00 | 84 | 1011.5 |
| 20260502102603 | 49 | 179 | 0.0 | 0.0 | 0.00 | 0.01 | 0.00 | 84 | 1011.4 |
| 20260502102103 | 49 | 179 | 0.0 | 0.0 | 0.00 | 0.01 | 0.00 | 84 | 1011.5 |
| 20260502101603 | 49 | 179 | 0.0 | 0.0 | 0.00 | 0.01 | 0.00 | 84 | 1011.4 |
| 20260502101103 | 49 | 179 | 0.0 | 0.0 | 0.00 | 0.01 | 0.00 | 84 | 1011.4 |
| 20260502100603 | 50 | 179 | 0.0 | 0.0 | 0.00 | 0.01 | 0.00 | 83 | 1011.3 |
| 20260502080103 | 55 | 179 | 0.0 | 0.0 | 0.00 | 0.01 | 0.00 | 73 | 1011.8 |
| 20260502071103 | 57 | 269 | 0.0 | 0.0 | 0.00 | 0.01 | 0.00 | 67 | 1011.4 |
| 20260502065603 | 58 | 259 | 0.0 | 2.6 | 0.01 | 0.01 | 0.01 | 64 | 1010.9 |
| 20260502065103 | 58 | 305 | 0.0 | 0.9 | 0.01 | 0.01 | 0.01 | 65 | 1010.8 |
| 20260502064103 | 59 | 323 | 1.7 | 5.2 | 0.01 | 0.01 | 0.01 | 63 | 1010.5 |
| 20260502063603 | 59 | 321 | 0.0 | 2.6 | 0.00 | 0.00 | 0.00 | 60 | 1010.7 |
| 20260502063103 | 60 | 320 | 1.7 | 2.6 | 0.00 | 0.00 | 0.00 | 59 | 1010.9 |
| 20260502062603 | 60 | 234 | 0.0 | 2.6 | 0.00 | 0.00 | 0.00 | 59 | 1011.9 |
| 20260502062103 | 61 | 224 | 0.9 | 2.6 | 0.00 | 0.00 | 0.00 | 58 | 1012.7 |
| 20260502061604 | 61 | 254 | 0.9 | 5.2 | 0.00 | 0.00 | 0.00 | 59 | 1013.0 |
| 20260502061103 | 62 | 198 | 0.0 | 2.6 | 0.00 | 0.00 | 0.00 | 56 | 1012.8 |
| 20260502060603 | 62 | 190 | 0.0 | 0.9 | 0.00 | 0.00 | 0.00 | 56 | 1012.6 |
| 20260502055103 | 62 | 244 | 0.0 | 0.0 | 0.00 | 0.00 | 0.00 | 55 | 1012.5 |
| 20260502054103 | 62 | 272 | 0.0 | 0.0 | 0.00 | 0.00 | 0.00 | 57 | 1012.6 |
| 20260502053603 | 62 | 273 | 0.0 | 0.9 | 0.00 | 0.00 | 0.00 | 57 | 1012.5 |
| 20260502053103 | 62 | 277 | 0.0 | 0.0 | 0.00 | 0.00 | 0.00 | 57 | 1012.5 |
| 20260502052603 | 62 | 277 | 0.0 | 0.9 | 0.00 | 0.00 | 0.00 | 57 | 1011.9 |
| 20260502052103 | 62 | 327 | 0.0 | 0.0 | 0.00 | 0.00 | 0.00 | 57 | 1011.7 |
| 20260502051603 | 62 | 327 | 0.0 | 0.0 | 0.00 | 0.00 | 0.00 | 57 | 1011.5 |
| 20260502051103 | 62 | 327 | 0.0 | 0.0 | 0.00 | 0.00 | 0.00 | 57 | 1011.5 |
| 20260502050603 | 62 | 327 | 0.0 | 0.9 | 0.00 | 0.00 | 0.00 | 56 | 1011.4 |
| 20260502050104 | 63 | 327 | 0.0 | 0.0 | 0.00 | 0.00 | 0.00 | 56 | 1011.2 |
| 20260502045603 | 63 | 327 | 0.0 | 0.0 | 0.00 | 0.00 | 0.00 | 56 | 1011.1 |
| 20260502045104 | 63 | 327 | 0.0 | 0.0 | 0.00 | 0.00 | 0.00 | 56 | 1011.1 |
| 20260502044604 | 63 | 327 | 0.0 | 1.7 | 0.00 | 0.00 | 0.00 | 55 | 1011.0 |
| 20260502044103 | 63 | 327 | 0.0 | 2.6 | 0.00 | 0.00 | 0.00 | 55 | 1011.0 |
| 20260502043603 | 63 | 326 | 0.0 | 2.6 | 0.00 | 0.00 | 0.00 | 55 | 1011.1 |
| 20260502042603 | 64 | 325 | 0.0 | 2.6 | 0.00 | 0.00 | 0.00 | 54 | 1011.1 |
| 20260502042103 | 64 | 320 | 0.9 | 8.7 | 0.00 | 0.00 | 0.00 | 54 | 1011.1 |
| 20260502041603 | 64 | 322 | 0.0 | 1.7 | 0.00 | 0.00 | 0.00 | 54 | 1011.1 |
| 20260502041103 | 64 | 337 | 0.0 | 7.8 | 0.00 | 0.00 | 0.00 | 54 | 1011.0 |
| 20260502040604 | 64 | 332 | 1.7 | 7.0 | 0.00 | 0.00 | 0.00 | 53 | 1010.8 |
| 20260502040103 | 65 | 330 | 2.6 | 10.4 | 0.00 | 0.00 | 0.00 | 52 | 1010.8 |
| 20260502035604 | 65 | 328 | 1.7 | 7.0 | 0.00 | 0.00 | 0.00 | 52 | 1010.5 |
| 20260502035103 | 65 | 332 | 2.6 | 8.7 | 0.00 | 0.00 | 0.00 | 51 | 1010.4 |
| 20260502034103 | 66 | 319 | 0.0 | 2.6 | 0.00 | 0.00 | 0.00 | 44 | 1010.4 |
| 20260502033604 | 66 | 328 | 0.0 | 1.7 | 0.00 | 0.00 | 0.00 | 41 | 1010.4 |
| 20260502032603 | 66 | 321 | 1.7 | 7.8 | 0.00 | 0.00 | 0.00 | 37 | 1009.9 |
| 20260502031603 | 67 | 309 | 0.9 | 10.4 | 0.00 | 0.00 | 0.00 | 37 | 1009.8 |
| 20260502031103 | 67 | 331 | 1.7 | 10.4 | 0.00 | 0.00 | 0.00 | 37 | 1009.8 |
| 20260502030603 | 67 | 230 | 0.0 | 2.6 | 0.00 | 0.00 | 0.00 | 37 | 1009.8 |
| 20260502025103 | 69 | 317 | 0.9 | 12.2 | 0.00 | 0.00 | 0.00 | 42 | 1009.7 |
| 20260502024103 | 70 | 239 | 0.9 | 5.2 | 0.00 | 0.00 | 0.00 | 41 | 1009.9 |
| 20260502023103 | 71 | 318 | 1.7 | 7.8 | 0.00 | 0.00 | 0.00 | 37 | 1009.8 |
| 20260502022103 | 72 | 324 | 4.3 | 12.2 | 0.00 | 0.00 | 0.00 | 34 | 1009.7 |
| 20260502021103 | 73 | 332 | 0.0 | 0.0 | 0.00 | 0.00 | 0.00 | 22 | 1009.6 |
| 20260502020104 | 73 | 106 | 0.0 | 2.6 | 0.00 | 0.00 | 0.00 | 22 | 1009.6 |
| 20260502015103 | 74 | 222 | 0.0 | 2.6 | 0.00 | 0.00 | 0.00 | 22 | 1009.8 |
| 20260502014603 | 75 | 233 | 0.0 | 1.7 | 0.00 | 0.00 | 0.00 | 21 | 1009.7 |
| 20260502014103 | 75 | 227 | 0.9 | 5.2 | 0.00 | 0.00 | 0.00 | 21 | 1009.7 |